Retour au catalogue

STARLINK-5192

ActifCommunicationsVLEO
NORAD 54074·PAYLOAD·🇺🇸 United States

Lancé Oct 20, 2022 depuis Cape Canaveral Space Force Station

Loading…

Prochains Passages (prochaines 24 heures)

TLE

FraisSource: CelesTrak SupGP

Époque: Sep 14, 2026, 14:20 UTC

1 54074C 22136Z   26257.59770833 -.00013395  00000+0 -38329-3 0  2575
2 54074  53.1584 207.7442 0001298  92.2336 229.1397 15.35402287    10

Suivez STARLINK-5192 en temps réel avec AllMySat

Download on the App Store